User: anonymous   Login
Location: Unspecified
(0.0000°N, 0.0000°E)
Time: 18:00:53
(UTC+00:00)
Language:

STARLINK-3760 - Orbit

View from above orbital plane
View from above orbital plane
View from above satellite
View from above satellite

Ground track
Ground track

The orbit is defined by the following mean orbital elements,

1 52298U          26145.33416110 +.00000000 +00000-0 +29567-4 0 00009
2 52298  53.2120 114.6616 0001259  73.5436 286.5695 15.08835404    00
Epoch (UTC): 25 May 2026 08:01:11
Eccentricity: 0.0001259
inclination: 53.2120°
perigee height: 539 km
apogee height: 541 km
right ascension of ascending node: 114.6616°
argument of perigee: 73.5436°
revolutions per day: 15.08835404
mean anomaly at epoch: 286.5695°

The dashed part of the orbit path shows where the satellite is in the earth's shadow,  

DLR